Weather in Solnechnoye

Russia / Saint-Petersburg and Leningrad Oblast     60°08′58″N   29°57′10″E
temp.,
°C
wind,
m/s
gust,
m/s
humid.,
%
clouds,
%
prec.,
mm/h
press.,
hPa
HPBL,
m
22 october, fri
fri2200:00+10ssw61392100 7.9 974968
03:00+10sw81777100 8.9 9731493
06:00+8sw112072100 0.4 9731663
09:00+6sw112085100 2.1 9741751
12:00+6sw112074100 0.8 9761887
15:00+6wsw122279100 2.1 9771987
18:00+6wsw122178100 1.7 9791823
21:00+6wsw112083100 2.7 9821786
23 october, sat
sat2300:00+5wsw91890100 1.6 9831679
03:00+4wsw71496100 3.1 9861115
06:00+3wsw51196100 0.7 987737
09:00+3nw2698100 1.6 990453
12:00+3n5995100 0.4 994789
15:00+3n51093100 0.6 999773
18:00+2nnw51195100 0.1 1003723
21:00+1nnw5119599 0.2 1007622
24 october, sun
sun2400:00+1nnw51088100 0.1 1010707
03:000nnw5108790 0.1 1013584
06:00−1nnw5119064 0.0 1016624
09:00−1nnw410865 0.0 1019630
12:00+1nnw48705 0.0 1022815
15:00+2nnw36645 0.0 1024943
18:00−1wnw2580100 0.0 1025130
21:00−1nw128182 0.0 102636
25 october, mon
mon2500:000sw2374100 0.0 102698
03:00+1sw4876100 0.0 1025427
06:00+1ssw51293100 0.2 1022554
09:00+2ssw51293100 1.1 1020689
12:00+4sw61390100 0.2 1020728
15:00+5sw71392100 0.3 1018903
18:00+6sw71487100 0.0 1017964
21:00+7sw71486100 0.1 10161042
26 october, tue
tue2600:00+6sw61286100 0.0 1016941
03:00+5sw61289100 0.0 1015618
06:00+4sw51190100 0.0 1013517
09:00+5sw51188100 0.0 1012563
12:00+5sw51088100 0.0 1011567
15:00+6sw4987100 0.0 1009575
18:00+5ssw41094100 0.5 1007478
21:00+5ssw51096100 2.8 1005461